{"data":{"norad_id":67483,"epoch":"2026-05-25T04:37:49.819008Z","epoch_age_seconds":54409,"freshness":"FRESH","line1":"1 67483U 25276DT  26145.19293772  .00001026  00000+0  92800-4 0  9999","line2":"2 67483  97.5246 216.4853 0011114 192.3565 167.7387 14.97480404 19168","mean_motion":14.97480404,"eccentricity":0.0011114,"inclination_deg":97.5246,"raan_deg":216.4853,"arg_perigee_deg":192.3565,"mean_anomaly_deg":167.7387,"bstar":9.28e-5,"rev_number":1916,"period_min":96.161525463274,"perigee_km":566.95707283474,"apogee_km":582.41180432842,"semimajor_km":6952.8214385816,"source":"CELESTRAK","updated_at":"2026-05-25T13:38:07.039576Z"}}